Marysville, CA

12:43 AM PDT on August 22, 2019 (GMT -0700)
Yuba County

Weather History for KMYV - June, 2019

Change the Weather History Date:

Thursday, June 13, 2019

  Actual Average Record
Temperature  
Mean Temperature 78 °F -  
Max Temperature 93 °F 88 °F 105 °F (1949)
Min Temperature 64 °F 58 °F 48 °F (1952)
Cooling Degree Days 14    
Growing Degree Days 28 (Base 50)    
Moisture  
Dew Point 60 °F    
Average Humidity 55    
Maximum Humidity 80    
Minimum Humidity 32    
Precipitation  
Precipitation 0.00 in - - ()
Sea Level Pressure  
Sea Level Pressure 29.81 in    
Wind  
Wind Speed 6 mph (SSE)    
Max Wind Speed 12 mph    
Max Gust Speed -    
Visibility 10 miles    
Events      
Averages and records for this station are not official NWS values.
T = Trace of Precipitation, MM = Missing Value Source: NWS Daily Summary

Daily Weather History Graph

Daily Weather History Graph

Search for Another Location

Airport or City:

Astronomy

Jun. 13, 2019 Rise Set
Actual Time 5:39 AM PDT 8:33 PM PDT
Civil Twilight 5:07 AM PDT 9:05 PM PDT
Nautical Twilight 4:27 AM PDT 9:45 PM PDT
Astronomical Twilight 3:40 AM PDT 10:32 PM PDT
Moon 4:55 PM PDT (6/13) 3:25 AM PDT (6/13)
Length of Visible Light 15h 57m
Length of Day
14h 53m
Waxing Gibbous, 86% of the Moon is Illuminated
Jun 13
Waxing Gibbous
Jun 17
Full
Jun 25
Last Quarter
Jul 2
New
Jul 9
First Quarter

Hourly Weather History & Observations

Time (PDT) Temp. Heat Index Dew Point Humidity Pressure Visibility Wind Dir Wind Speed Gust Speed Precip Events Conditions
12:53 AM 73.9 °F - 60.1 °F 62% 29.81 in 10.0 mi SSE 4.6 mph - N/A   Clear
1:53 AM 72.0 °F - 60.1 °F 66% 29.81 in 10.0 mi SSE 9.2 mph - N/A   Clear
2:53 AM 69.1 °F - 57.9 °F 68% 29.82 in 10.0 mi SSE 4.6 mph - N/A   Clear
3:53 AM 66.9 °F - 57.9 °F 73% 29.82 in 10.0 mi ESE 3.5 mph - N/A   Clear
4:53 AM 64.0 °F - 57.9 °F 80% 29.82 in 10.0 mi SSW 3.5 mph - N/A   Clear
5:53 AM 64.0 °F - 57.0 °F 78% 29.83 in 10.0 mi South 5.8 mph - N/A   Clear
6:53 AM 66.0 °F - 57.9 °F 75% 29.84 in 10.0 mi South 3.5 mph - N/A   Clear
7:53 AM 70.0 °F - 57.0 °F 63% 29.85 in 10.0 mi SSE 6.9 mph - N/A   Clear
8:53 AM 73.9 °F - 57.9 °F 57% 29.85 in 10.0 mi ESE 4.6 mph - N/A   Clear
9:53 AM 78.1 °F - 59.0 °F 52% 29.85 in 10.0 mi SSE 6.9 mph - N/A   Clear
10:53 AM 82.9 °F 82.8 °F 59.0 °F 44% 29.84 in 10.0 mi SSE 4.6 mph - N/A   Clear
11:53 AM 86.0 °F 85.7 °F 60.1 °F 41% 29.84 in 10.0 mi South 8.1 mph - N/A   Clear
12:53 PM 89.1 °F 88.8 °F 60.1 °F 38% 29.83 in 10.0 mi SSE 8.1 mph - N/A   Clear
1:53 PM 91.9 °F 92.5 °F 62.1 °F 37% 29.82 in 10.0 mi Variable 6.9 mph - N/A   Clear
2:53 PM 91.9 °F 91.8 °F 61.0 °F 35% 29.81 in 10.0 mi SE 5.8 mph - N/A   Clear
3:53 PM 91.9 °F 91.2 °F 59.0 °F 33% 29.78 in 10.0 mi SE 6.9 mph - N/A   Clear
4:53 PM 93.0 °F 92.3 °F 59.0 °F 32% 29.77 in 10.0 mi SSW 8.1 mph - N/A   Clear
5:53 PM 91.9 °F 92.9 °F 63.0 °F 38% 29.76 in 10.0 mi South 11.5 mph - N/A   Clear
6:53 PM 90.0 °F 90.3 °F 62.1 °F 39% 29.76 in 10.0 mi SSE 10.4 mph - N/A   Clear
7:53 PM 86.0 °F 86.3 °F 62.1 °F 44% 29.76 in 10.0 mi SSE 10.4 mph - N/A   Clear
8:53 PM 80.1 °F 81.5 °F 63.0 °F 56% 29.77 in 10.0 mi SSE 9.2 mph - N/A   Clear
9:53 PM 77.0 °F - 63.0 °F 62% 29.79 in 10.0 mi SSE 10.4 mph - N/A   Clear
10:53 PM 73.0 °F - 61.0 °F 66% 29.81 in 10.0 mi SSE 9.2 mph - N/A   Clear
11:53 PM 71.1 °F - 61.0 °F 70% 29.82 in 10.0 mi SSE 8.1 mph - N/A   Clear